SCP
0 0 0 0 0 0 0 0 0 0 0 0 0 0 0 0 1 1 1 1 2 2 2 1 1 1 1 1 1 1 1 1 1 1 1 0 0 0 0 0 0 0 0 0
0 0 0 0 0 0 0 0 0 0 0 0 0 0 0 0 1 1 1 1 1 2 2 1 1 1 1 1 1 1 1 1 1 0 0 0 0 0 0 0 0 0 0 0
0 0 0 0 0 0 0 0 0 0 0 0 0 0 0 0 0 1 1 1 1 1 1 1 1 1 1 1 1 1 1 1 0 0 0 0 0 0 0 0 0 0 0 0
0 0 0 0 0 0 0 0 0 0 0 0 0 0 0 0 0 0 1 1 1 1 1 1 1 1 1 1 1 0 0 0 0 0 0 0 0 0 0 0 0 0 0 0
0 0 0 0 0 0 0 0 0 0 0 0 0 0 0 0 0 0 0 0 1 1 1 1 1 1 1 1 0 0 0 0 0 0 0 0 0 0 0 0 0 0 0 0
0 0 0 0 0 0 0 0 0 0 0 0 0 0 0 0 0 0 0 0 0 1 1 1 1 1 1 0 0 0 0 0 0 0 0 0 0 0 0 0 0 0 0 0
0 0 0 0 0 0 0 0 0 0 0 0 0 0 0 0 0 0 0 0 0 0 1 1 1 0 0 0 0 0 0 0 0 0 0 0 0 0 0 0 0 0 0 0
0 0 0 0 0 0 0 0 0 0 0 0 0 0 0 0 0 0 0 0 0 0 0 1 0 0 0 0 0 0 0 0 0 0 0 0 0 0 0 0 0 0 0 0
0 0 0 0 0 0 0 0 0 0 0 0 0 0 0 0 0 0 0 0 0 0 0 0 0 0 0 0 0 0 0 0 0 0 0 0 0 0 0 0 0 0 0 0
0 0 0 0 0 -0 0 0 0 0 0 0 0 0 0 0 0 0 0 0 0 0 0 0 0 0 0 0 0 0 0 0 0 0 0 0 0 0 0 0 0 0 0 0
0 0 0 0 0 0 0 0 0 0 0 0 0 0 0 0 0 0 0 0 0 0 0 0 0 0 0 0 0 0 0 0 0 0 0 0 0 0 0 0 0 0 0 0
0 0 0 0 0 0 0 0 0 0 0 0 0 0 0 0 0 0 0 0 0 0 0 0 0 0 0 0 0 0 0 0 0 0 0 0 0 0 0 0 0 0 0 0
0 0 0 0 0 0 0 0 0 0 0 0 0 0 0 0 0 0 0 0 0 0 0 0 0 0 0 0 0 0 0 0 0 0 0 0 0 0 0 0 0 0 0 0
0 0 0 0 0 0 0 0 0 0 0 0 0 0 0 0 0 0 0 0 0 0 0 0 0 0 0 0 0 0 0 0 0 0 0 0 0 0 0 0 0 0 0 0
0 0 0 0 0 0 0 0 0 0 0 0 0 0 0 0 0 0 0 0 0 0 0 0 0 0 0 0 0 0 0 0 0 0 0 0 0 0 0 0 0 0 0 0
0 0 0 0 0 0 0 0 0 0 0 0 0 0 0 0 0 0 0 0 1 1 1 0 0 0 0 0 0 0 0 0 0 0 0 0 0 0 0 0 0 0 0 0
0 0 0 0 0 0 0 0 0 0 0 0 0 0 0 0 0 0 0 0 1 1 1 1 0 0 0 0 0 0 0 0 0 0 0 0 0 0 0 0 0 0 0 0
0 0 0 0 0 0 0 0 0 0 0 0 0 0 0 0 0 0 0 1 1 1 1 1 0 0 0 0 0 0 0 0 0 0 0 0 0 0 0 0 0 0 0 0
0 0 0 0 0 0 0 0 0 0 0 0 0 0 0 0 0 0 0 0 1 1 1 1 0 1 0 0 0 0 0 0 0 0 0 0 0 0 0 0 0 0 0 0
0 0 0 0 0 0 0 0 0 0 0 0 0 0 0 0 0 0 0 0 0 0 1 1 1 1 1 0 0 0 0 0 0 0 0 0 0 0 0 0 0 0 0 0
0 0 0 0 0 0 0 0 0 0 0 0 0 0 0 0 0 0 0 0 0 0 0 0 0 1 0 0 0 0 0 0 0 0 0 0 0 0 0 0 0 0 0 0
0 0 0 0 0 0 0 0 0 0 0 0 0 0 0 0 0 0 0 0 0 0 0 0 0 0 0 0 0 0 0 0 0 0 0 0 0 0 0 0 0 0 0 0
0 0 0 0 0 0 0 0 0 0 0 0 0 0 0 0 0 0 0 0 0 0 0 0 0 0 0 0 0 0 0 0 0 0 0 0 0 0 0 0 0 0 0 0
0 0 0 0 0 0 0 0 0 0 0 0 0 0 0 0 0 0 0 0 0 0 0 0 0 0 0 0 0 0 0 0 0 0 0 0 0 0 0 0 0 0 0 0
0 0 0 0 0 0 0 0 0 0 0 0 0 0 0 0 0 0 0 0 0 0 0 0 0 0 0 0 0 0 0 0 0 0 0 0 0 0 0 0 0 0 0 0
0 0 0 0 0 0 0 0 0 0 0 0 0 0 0 0 0 0 0 0 0 0 0 0 0 0 0 0 0 0 0 0 0 0 0 0 0 0 0 0 0 0 0 0
Wind_Speed
4 3 6 9 9 9 8 11 13 14 9 2 2 2 3 4 6 7 6 7 9 8 7 8 8 10 11 10 10 11 11 9 8 7 6 6 4 3 3 4 5 6 6 6
2 8 13 10 10 10 12 12 12 10 6 1 1 2 0 3 7 9 9 9 10 8 7 8 8 8 10 11 10 10 11 12 10 7 6 5 5 3 3 3 4 5 6 5
10 10 8 11 12 13 14 10 8 7 4 5 3 4 4 3 0 3 6 7 9 12 12 10 9 9 9 10 11 11 11 11 10 9 6 5 4 3 2 3 3 4 5 5
9 12 12 12 13 11 12 13 8 4 2 4 2 1 5 4 2 1 2 4 6 8 9 9 9 9 9 9 9 9 10 10 9 9 9 10 7 5 5 4 4 4 5 5
8 6 8 12 16 12 12 10 5 1 2 2 5 2 6 3 3 3 2 4 6 8 10 10 10 9 8 8 8 8 8 8 8 9 10 9 6 4 4 4 5 4 4 5
11 10 7 10 13 10 8 2 5 6 6 2 4 1 5 3 3 4 3 3 4 7 8 8 7 6 6 6 7 7 8 8 8 9 9 9 8 7 7 7 6 4 3 3
9 12 11 9 10 10 2 4 5 5 5 4 3 2 7 6 5 3 3 3 4 6 8 8 8 7 7 7 7 7 8 8 8 9 9 9 9 9 10 8 7 6 4 3
6 10 8 7 10 9 6 10 8 5 5 4 3 4 7 6 5 2 0 3 5 7 8 9 9 8 7 7 7 8 8 7 8 8 7 7 8 6 6 7 6 6 5 4
8 9 7 8 8 9 6 6 10 8 3 1 3 4 7 4 4 3 3 3 3 6 7 7 7 6 6 7 7 8 8 7 7 7 7 6 7 7 6 6 6 5 4 5
11 6 10 7 3 3 9 8 6 6 4 2 3 4 5 5 5 2 1 3 2 4 5 6 6 6 5 5 6 7 8 8 7 7 7 6 6 6 6 6 6 6 5 5
9 7 7 5 1 3 2 3 5 5 6 7 3 7 7 9 6 4 4 4 5 6 6 6 5 5 5 5 6 6 7 7 7 7 6 6 6 6 6 5 6 6 6 6
8 8 5 7 5 2 4 4 7 5 3 5 5 6 3 7 5 5 5 6 6 7 7 6 6 5 5 5 5 6 7 7 7 7 6 6 6 6 6 6 6 6 6 6
5 7 2 6 8 6 4 2 4 6 5 3 4 5 1 1 2 4 5 6 7 8 8 7 6 6 6 6 6 6 6 7 6 6 6 6 6 6 6 6 6 6 6 6
5 5 7 8 6 2 1 1 3 6 4 2 5 6 4 5 6 5 6 6 7 8 9 8 7 6 6 6 6 6 6 7 7 7 7 6 6 6 6 6 6 5 5 5
6 4 3 3 2 0 1 1 1 3 5 5 5 6 8 10 10 7 6 7 9 9 10 10 9 8 7 7 6 6 6 6 8 8 7 7 6 5 5 5 5 5 5 6
5 3 2 3 5 4 3 2 1 1 1 2 2 2 3 4 3 3 5 8 9 9 10 10 10 10 9 9 8 7 7 7 7 7 7 7 7 7 6 6 6 7 7 6
3 4 3 1 3 5 3 2 0 2 2 2 3 3 3 5 3 2 3 5 6 8 9 10 10 10 9 10 10 9 8 7 7 7 7 6 7 7 6 7 7 8 7 7
4 3 3 2 3 2 7 3 4 9 8 7 6 4 6 6 4 4 3 4 5 5 6 7 7 7 7 7 8 8 8 8 8 7 7 7 7 7 7 8 8 8 8 8
5 6 4 4 2 4 4 4 2 6 5 4 6 6 6 6 6 6 5 4 3 3 3 3 4 4 5 7 8 9 8 7 8 8 8 8 8 9 9 9 9 9 9 9
4 5 5 4 3 4 3 6 2 9 3 2 4 5 5 4 3 0 2 3 4 4 4 3 3 4 4 5 7 9 8 8 8 7 8 8 8 9 10 10 10 9 10 10
4 4 3 4 3 3 3 5 4 5 4 2 2 4 5 4 4 3 2 3 4 4 5 5 5 5 4 5 8 9 8 8 8 8 9 9 9 10 10 10 9 11 11 11
2 2 1 2 2 4 5 4 4 3 2 1 3 4 6 7 7 6 5 4 5 6 7 7 7 6 5 5 9 10 9 8 9 10 11 11 10 10 10 12 10 10 11 12
2 3 3 3 4 2 2 3 2 2 3 1 2 5 8 8 7 6 5 5 5 6 6 6 8 8 7 6 8 11 10 10 12 13 12 12 12 10 10 11 11 9 9 9
2 1 2 2 1 2 4 4 4 3 3 2 3 6 8 8 7 7 6 6 6 6 7 7 9 10 9 8 8 10 10 11 13 14 12 11 12 11 10 8 7 7 7 8
1 1 1 1 1 2 4 4 4 5 5 5 5 6 7 9 8 8 7 7 7 7 7 8 9 10 10 10 10 10 10 12 14 13 12 11 11 11 11 9 7 7 5 6
2 3 4 4 3 3 1 1 3 5 5 5 7 7 7 8 10 10 9 8 8 8 8 9 10 11 10 10 11 9 9 11 13 12 11 9 9 9 9 10 10 14 11 12
Wind_Direction
231 186 232 236 225 229 258 277 282 280 274 284 220 183 178 166 151 152 163 164 164 168 167 159 160 158 158 163 163 162 159 162 160 156 152 152 156 157 157 160 158 153 152 148
268 246 237 240 250 256 264 273 277 285 299 30 85 49 193 171 172 172 174 175 169 160 157 161 162 162 163 166 165 166 166 167 169 164 159 155 152 160 163 162 157 158 156 153
218 242 238 237 250 257 266 256 258 269 318 13 65 7 331 320 2 162 164 167 169 170 169 171 172 171 166 168 172 175 173 169 167 157 143 133 118 113 131 153 164 172 162 155
242 248 252 254 256 248 260 256 253 275 357 323 46 235 285 294 338 130 173 171 178 176 171 172 173 173 175 176 172 173 172 170 166 158 157 157 159 168 179 172 170 171 164 155
244 240 236 245 252 249 245 253 252 275 91 25 5 106 281 325 314 298 257 195 179 181 179 177 177 175 173 171 172 171 168 168 167 165 164 164 165 168 156 152 158 164 162 157
251 265 252 245 263 256 252 295 22 46 66 23 283 180 277 268 256 297 288 210 180 179 176 173 166 157 160 163 165 165 167 171 170 169 167 167 167 163 156 161 165 167 162 158
275 274 263 258 270 281 253 92 28 358 7 262 268 189 247 258 260 251 243 199 190 177 165 162 162 162 163 163 164 163 167 171 171 170 172 172 172 168 169 170 169 165 163 165
233 272 254 231 211 217 214 144 158 194 223 260 298 233 258 271 284 298 147 161 166 172 170 168 169 165 165 167 168 165 169 170 169 170 171 169 167 165 170 171 166 168 171 173
203 250 262 257 239 183 189 187 172 145 165 161 271 283 296 298 333 4 49 92 162 174 169 163 160 160 165 167 172 171 167 166 167 165 159 159 162 164 167 166 163 162 163 168
181 243 282 281 305 218 176 169 107 121 153 214 265 249 242 251 243 225 139 153 170 151 149 151 155 156 158 158 160 165 167 168 166 160 161 160 160 164 163 159 160 160 165 159
170 189 280 340 253 226 155 137 126 132 151 151 204 257 222 209 208 186 190 177 162 152 147 150 156 150 145 142 148 152 156 154 155 157 155 152 157 158 154 158 162 158 156 153
178 156 230 260 268 194 151 163 139 145 213 161 164 255 251 189 184 177 187 179 157 154 150 145 148 143 142 145 150 155 157 154 156 155 149 150 149 149 148 152 153 148 146 155
139 125 140 330 341 5 63 97 129 128 116 133 148 250 269 178 185 191 177 168 150 150 148 144 146 151 155 155 155 155 157 155 152 148 147 146 145 147 148 150 150 149 148 148
109 110 149 181 211 247 337 54 108 106 121 181 196 203 219 208 206 200 178 158 152 152 156 156 158 157 156 159 160 158 159 157 156 152 149 151 152 153 152 150 147 146 143 137
81 106 135 163 204 102 360 317 139 139 169 180 218 195 205 201 197 189 172 156 163 163 165 166 166 165 162 159 160 160 159 160 159 156 158 158 154 148 144 144 139 133 126 122
56 94 66 21 19 37 24 348 339 112 131 156 141 250 231 171 145 148 169 169 167 170 171 171 168 169 171 171 169 164 161 160 155 158 162 160 153 149 150 143 128 116 107 103
47 86 85 331 349 40 340 296 200 63 24 138 157 215 129 109 119 181 172 163 167 173 171 173 174 174 177 175 171 169 168 160 156 158 157 154 153 150 145 137 122 115 111 104
121 95 118 110 56 227 248 297 97 86 51 56 86 94 105 115 103 60 62 113 142 156 164 171 170 170 173 169 164 158 156 157 155 156 155 150 143 135 126 120 118 113 108 105
142 133 116 116 148 271 312 352 57 105 57 35 91 94 96 112 75 37 21 54 99 113 119 139 158 162 162 163 159 150 150 151 149 151 149 147 143 136 128 124 120 115 110 102
61 100 116 127 153 215 270 314 345 99 75 348 98 111 123 107 88 299 1 44 67 73 84 102 127 128 142 156 147 140 142 140 140 140 135 131 130 127 124 122 117 110 108 105
32 40 109 148 180 235 285 315 32 106 195 244 122 131 127 126 156 149 98 73 76 82 80 81 98 117 128 135 129 127 128 131 129 121 114 111 112 113 114 111 110 111 108 103
134 106 121 134 167 236 320 28 89 177 184 106 108 120 120 122 122 116 101 81 69 71 72 79 88 86 85 106 122 122 123 122 114 109 105 102 101 106 107 106 106 108 111 108
98 168 174 172 198 240 15 87 108 119 106 87 111 126 127 126 127 123 114 101 89 83 82 86 96 89 77 82 114 117 116 114 110 104 100 97 93 94 101 107 109 107 106 109
320 24 103 80 46 36 37 49 43 62 91 85 120 130 127 126 126 119 114 104 96 87 87 91 95 92 84 78 91 103 109 111 110 106 101 98 96 91 84 85 92 102 107 110
258 20 91 141 185 60 35 31 39 63 73 78 89 105 119 123 124 121 114 108 101 90 85 89 94 95 91 90 90 93 103 108 104 101 99 96 95 96 87 77 67 82 82 115
211 179 174 204 197 148 186 340 54 76 82 97 104 98 101 114 120 117 111 107 103 98 94 92 90 91 90 90 89 89 98 108 110 107 105 104 102 99 99 99 80 57 73 85